Showing default

COSMOS 2094, 20739

Orbit data source: Space-Track

COSMOS 2094, 20739 is a payload satellite owned by UNKS (CIS) in LEO that was launched on Wed, 08 Aug 1990 UTC via a TSIKLON-3 launch vehicle from the Plesetsk Missile And Space Complex (PKMTR). Payload-class satellites include a variety of spacecraft equipped with specific instruments for various scientific and technological missions. These include communications satellites like Starlink; space stations such as the ISS; scientific satellites like the Hubble; Earth observation satellites from companies like Planet Labs, Umbra, and HawkEye 360; GPS; miniature CubeSats for education and research; and military/defense satellites.

Loading next visibility...
Identifier
20739, 1990-070E
Orbit
LEO
Country
Flag of CISCIS
Related business
Manufacturer
NPO PM
Mission
Defense Communications
Bus & Motor
STRELA-3, Unknown motor
Mass
225 kg wet, 225 kg dry
Launch date (UTC)
1990-08-08 (36 years ago)
Launch vehicle
TSIKLON-3
Launch site
Plesetsk Missile And Space Complex (PKMTR)
Object type
Payload
Rocket body
Debris
Shape & HBR
Cyl, 0.8 m
Radar Cross Section
1.257 m², Large (>1 m²)

Expand to show TLE details & history
Last TLE update: 23 hours ago

TLE from 23 hours ago
0 COSMOS 2094
1 20739U 90070E   26125.96362546  .00000014  00000-0  20598-4 0  9997
2 20739  82.5743 318.8710 0011478 180.6324 348.7571 12.64754177649889
Epoch: 2026-05-05T23:07Z
TLE epoch observation values (Epoch: 2026-05-05T23:07:37.239Z)
Latitude
10.49759°
Longitude
-73.24208°
Altitude
1,396.611 km
Speed
7.166 km/s
True Right ascension
09h 09m 58s
True Declination
10° 26' 28"
Sunlit
Object was in daylight at epoch
Visualization orbit readout
Latitude
Unknown
Longitude
Unknown
Altitude
Unknown
Speed
Unknown
Apparent Right ascension
Unknown
Apparent Declination
Unknown
Sunlit
N/A
Visualization observer readout
Local Sidereal Time
06:09:51
Azimuth
Unknown
Elevation
Unknown
Doppler factor
Unknown
Orbital elements
Apogee altitude
1,409.629 km
Perigee altitude
1,391.772 km
Semi-major axis
7,778.837 km
Eccentricity
0.00115
Inclination
82.5743°
RAAN
318.871°
Arg. of periapsis
180.6324°
True anomaly
348.73142°
Mean anomaly
348.7571°
Eccentric anomaly
348.74426°
Mean motion
3.16352 °/min
Orbital period
113.8 mins
BSTAR
0.000020598
Loading maneuver chart data...
Computing Atmospheric mass density...
Loading historical data...
Loading historical data...
Loading historical data...
Loading historical data...
Loading historical data...
Loading historical data...
Loading historical data...

Documentation

Showing up to 5 results
|